Flag Weather past 2 weeks in Fort Simpson, Northwest Territories, Canada

Now
0 °F

Light snow. Overcast.


Feels Like: -12 °F
Forecast: -1 / 4 °F
Wind: 6 mph from Northwest

Location: Fort Simpson

Current Time: Nov 21, 2014 at 8:31:27 PM

Latest Report: Nov 21, 2014 at 7:00 PM


Visibility: 15 mi

Pressure: 29.91 "Hg

Humidity: 71%

Dew point: -8 °F

Location of Fort SimpsonLocation

Historic Weather in Fort Simpson — Graph

°F

Fort Simpson temperature yesterday

Maximum temperature yesterday: 18 °F (at 1:00 PM)
Minimum temperature yesterday: 12 °F (at 9:00 AM)
Average temperature yesterday: 15 °F

Past Weeks' High & Low Weather Summary

 TemperatureHumidityPressure
High18 °F (Nov 15, 3:00 PM)93% (Nov 17, 9:00 PM)30.91 "Hg (Nov 17, 9:00 PM)
Low-22 °F (Nov 10, 1:00 AM)55% (Nov 7, 2:00 PM)29.70 "Hg (Nov 20, 1:00 PM)
Average3 °F79%30.38 "Hg
* Reported Nov 6 7:00 PM — Nov 21 7:00 PM, Fort Simpson, Weather by CustomWeather, © 2014

Note: Actual official high and low records may vary slightly from our data, if they occured in-between our weather recording intervals... More about our weather records

Advertising

Fort Simpson weather history for previous 24 hours

 ConditionsComfort  
Time TempWeatherWind HumidityBarometerVisibility
7:00 PM
Nov 21
0 °FLight snow. Overcast.6 mph71%29.91 "Hg15 mi
6:00 PM0 °FOvercast.5 mph78%29.92 "Hg15 mi
5:00 PM0 °FPassing clouds.8 mph78%29.91 "Hg15 mi
4:00 PM0 °FPartly sunny.8 mph78%29.93 "Hg15 mi
3:00 PM1 °FPartly sunny.10 mph78%29.93 "Hg15 mi
2:00 PM3 °FPartly sunny.12 mph72%29.93 "Hg15 mi
1:00 PM3 °FPartly sunny.10 mph78%29.93 "Hg15 mi
12:00 PM3 °FPartly sunny.10 mph78%29.93 "Hg15 mi
11:00 AM5 °FBroken clouds.16 mph78%29.93 "Hg15 mi
10:00 AM7 °FLight snow. Broken clouds.14 mph78%29.92 "Hg15 mi
9:00 AM9 °FLight snow. Overcast.12 mph78%29.91 "Hg15 mi
8:46 AM9 °FLight snow. Overcast.10 mph78%29.90 "Hg15 mi
8:00 AM10 °FMostly cloudy.14 mph72%29.89 "Hg15 mi
7:00 AM12 °FOvercast.12 mph73%29.88 "Hg15 mi
6:45 AM12 °FOvercast.12 mph73%29.88 "Hg15 mi
6:00 AM12 °FLight snow. Overcast.12 mph73%29.87 "Hg15 mi
5:00 AM14 °FLight snow. Overcast.10 mph73%29.86 "Hg15 mi
4:00 AM14 °FLight snow. Overcast.13 mph73%29.85 "Hg15 mi
3:00 AM14 °FLight snow. Overcast.14 mph73%29.83 "Hg15 mi
2:00 AM14 °FLight snow. Overcast.12 mph79%29.82 "Hg15 mi
1:00 AM16 °FLight snow. Mostly cloudy.10 mph73%29.80 "Hg15 mi
12:00 AM16 °FLight snow. Mostly cloudy.13 mph79%29.79 "Hg15 mi
11:00 PM
Nov 20
16 °FOvercast.9 mph86%29.78 "Hg15 mi
10:00 PM16 °FOvercast.8 mph86%29.77 "Hg15 mi
9:00 PM16 °FMostly cloudy.9 mph86%29.76 "Hg15 mi
8:00 PM16 °FMostly cloudy.10 mph86%29.75 "Hg15 mi
Weather by CustomWeather, © 2014

See weather overviewHow to use our weather pages